| time (UTC) | temp F | wind direction | speed knots | gust knots | rain 1hr in | rain 24hr in | rain mn in | humidity % | barometer mb |
| 20260901140053 | 72 | 60 | 3.5 | 6.1 | 0.00 | 0.00 | 0.00 | 75 | 1011.0 |
| 20260901134615 | 71 | 46 | 6.1 | 7.8 | 0.00 | 0.00 | 0.00 | 78 | 1011.0 |
| 20260901133056 | 69 | 222 | 0.0 | 3.5 | 0.00 | 0.00 | 0.00 | 81 | 1010.6 |
| 20260901131549 | 67 | 218 | 1.7 | 3.5 | 0.00 | 0.00 | 0.00 | 84 | 1010.5 |
| 20260901130049 | 66 | 199 | 0.9 | 1.7 | 0.00 | 0.00 | 0.00 | 85 | 1010.2 |
| 20260901124554 | 66 | 212 | 0.0 | 0.0 | 0.00 | 0.00 | 0.00 | 83 | 1010.0 |
| 20260901123045 | 67 | 213 | 0.0 | 0.0 | 0.00 | 0.00 | 0.00 | 80 | 1009.9 |
| 20260901121546 | 66 | 138 | 0.0 | 1.7 | 0.00 | 0.00 | 0.00 | 80 | 1009.7 |
| 20260901120044 | 66 | 133 | 0.0 | 0.9 | 0.00 | 0.00 | 0.00 | 80 | 1009.6 |
| 20260901114555 | 68 | 86 | 0.9 | 2.6 | 0.00 | 0.00 | 0.00 | 76 | 1009.8 |
| 20260901113041 | 68 | 292 | 0.9 | 3.5 | 0.00 | 0.00 | 0.00 | 77 | 1009.9 |
| 20260901111541 | 69 | 259 | 0.9 | 2.6 | 0.00 | 0.00 | 0.00 | 74 | 1009.5 |
| 20260901110041 | 69 | 205 | 0.0 | 0.0 | 0.00 | 0.00 | 0.00 | 73 | 1009.4 |
| 20260901104537 | 70 | 145 | 0.0 | 0.0 | 0.00 | 0.00 | 0.00 | 74 | 1009.4 |
| 20260901103035 | 70 | 60 | 0.0 | 0.0 | 0.00 | 0.00 | 0.00 | 73 | 1009.3 |
| 20260901101534 | 70 | 60 | 0.0 | 0.0 | 0.00 | 0.00 | 0.00 | 73 | 1009.5 |
| 20260901100032 | 71 | 226 | 0.0 | 0.0 | 0.00 | 0.00 | 0.00 | 72 | 1009.6 |
| 20260901094531 | 73 | 258 | 0.0 | 3.5 | 0.00 | 0.00 | 0.00 | 68 | 1009.7 |
| 20260901093028 | 74 | 281 | 1.7 | 4.3 | 0.00 | 0.00 | 0.00 | 67 | 1009.7 |
| 20260901091528 | 74 | 252 | 3.5 | 7.8 | 0.00 | 0.00 | 0.00 | 68 | 1010.2 |
| 20260901090026 | 74 | 258 | 1.7 | 6.1 | 0.00 | 0.00 | 0.00 | 70 | 1010.3 |
| 20260901084525 | 72 | 221 | 1.7 | 2.6 | 0.00 | 0.00 | 0.00 | 80 | 1010.5 |
| 20260901083023 | 72 | 243 | 0.9 | 4.3 | 0.00 | 0.00 | 0.00 | 81 | 1010.6 |
| 20260901081529 | 73 | 233 | 0.0 | 0.0 | 0.00 | 0.00 | 0.00 | 78 | 1009.9 |
| 20260901080024 | 73 | 217 | 0.0 | 1.7 | 0.00 | 0.00 | 0.00 | 78 | 1010.1 |
| 20260901074518 | 75 | 285 | 0.9 | 1.7 | 0.00 | 0.00 | 0.00 | 73 | 1010.1 |
| 20260901073019 | 73 | 253 | 0.9 | 2.6 | 0.00 | 0.00 | 0.00 | 78 | 1010.3 |
| 20260901071515 | 75 | 244 | 0.9 | 2.6 | 0.00 | 0.00 | 0.00 | 72 | 1010.2 |
| 20260901070015 | 73 | 285 | 0.9 | 4.3 | 0.00 | 0.00 | 0.00 | 76 | 1010.1 |
| 20260901064514 | 73 | 291 | 0.0 | 1.7 | 0.00 | 0.00 | 0.00 | 76 | 1009.9 |
| 20260901063025 | 74 | 257 | 1.7 | 2.6 | 0.00 | 0.00 | 0.00 | 76 | 1009.9 |
| 20260901061511 | 73 | 221 | 3.5 | 4.3 | 0.00 | 0.00 | 0.00 | 78 | 1010.1 |
| 20260901060009 | 74 | 28 | 3.5 | 5.2 | 0.00 | 0.00 | 0.00 | 76 | 1009.0 |
| 20260901054513 | 75 | 268 | 0.0 | 2.6 | 0.00 | 0.00 | 0.00 | 73 | 1009.9 |
| 20260901053002 | 76 | 8 | 0.0 | 0.0 | 0.00 | 0.00 | 0.00 | 73 | 1009.8 |
| 20260901051501 | 76 | 232 | 0.0 | 0.0 | 0.00 | 0.00 | 0.00 | 71 | 1009.8 |
| 20260901050058 | 76 | 43 | 0.0 | 2.6 | 0.00 | 0.00 | 0.00 | 72 | 1009.6 |
| 20260901044559 | 76 | 20 | 0.0 | 0.0 | 0.00 | 0.00 | 0.00 | 71 | 1009.6 |
| 20260901043059 | 77 | 91 | 0.0 | 1.7 | 0.00 | 0.00 | 0.00 | 70 | 1009.8 |
| 20260901041556 | 77 | 30 | 2.6 | 4.3 | 0.00 | 0.00 | 0.00 | 70 | 1010.0 |
| 20260901040111 | 78 | 268 | 0.9 | 4.3 | 0.00 | 0.00 | 0.00 | 68 | 1010.4 |
| 20260901034555 | 78 | 234 | 0.9 | 2.6 | 0.00 | 0.00 | 0.00 | 67 | 1010.1 |
| 20260901033056 | 77 | 51 | 1.7 | 3.5 | 0.00 | 0.00 | 0.00 | 70 | 1009.8 |
| 20260901031553 | 78 | 83 | 3.5 | 6.1 | 0.00 | 0.00 | 0.00 | 69 | 1009.4 |
| 20260901030053 | 78 | 146 | 0.9 | 1.7 | 0.00 | 0.00 | 0.00 | 67 | 1009.9 |
| 20260901024553 | 79 | 225 | 0.9 | 2.6 | 0.00 | 0.00 | 0.00 | 67 | 1010.3 |
| 20260901023053 | 80 | 231 | 1.7 | 1.7 | 0.00 | 0.00 | 0.00 | 64 | 1010.3 |
| 20260901021552 | 79 | 193 | 1.7 | 2.6 | 0.00 | 0.00 | 0.00 | 65 | 1009.9 |
| 20260901020051 | 80 | 167 | 1.7 | 3.5 | 0.00 | 0.00 | 0.00 | 64 | 1009.6 |
| 20260901014553 | 81 | 100 | 0.0 | 1.7 | 0.00 | 0.00 | 0.00 | 61 | 1009.1 |
| 20260901013107 | 81 | 103 | 0.9 | 1.7 | 0.00 | 0.00 | 0.00 | 61 | 1008.8 |
| 20260901011551 | 82 | 92 | 1.7 | 2.6 | 0.00 | 0.00 | 0.00 | 59 | 1008.5 |
| 20260901010052 | 83 | 68 | 0.9 | 2.6 | 0.00 | 0.00 | 0.00 | 58 | 1008.4 |
| 20260901004549 | 85 | 101 | 1.7 | 2.6 | 0.00 | 0.00 | 0.00 | 53 | 1008.3 |
| 20260901003049 | 87 | 88 | 1.7 | 5.2 | 0.00 | 0.00 | 0.00 | 51 | 1008.3 |
| 20260901001549 | 88 | 82 | 2.6 | 5.2 | 0.00 | 0.00 | 0.00 | 50 | 1008.5 |
| 20260901000048 | 89 | 84 | 4.3 | 6.1 | 0.00 | 0.00 | 0.00 | 47 | 1008.6 |
| 20260831234555 | 90 | 98 | 4.3 | 7.8 | 0.00 | 0.00 | 0.00 | 44 | 1008.6 |
| 20260831233046 | 90 | 72 | 4.3 | 7.0 | 0.00 | 0.00 | 0.00 | 44 | 1008.6 |
| 20260831231547 | 90 | 86 | 5.2 | 7.8 | 0.00 | 0.00 | 0.00 | 44 | 1008.6 |
| 20260831230046 | 90 | 96 | 4.3 | 8.7 | 0.00 | 0.00 | 0.00 | 46 | 1008.8 |
| 20260831224545 | 90 | 81 | 5.2 | 7.8 | 0.00 | 0.00 | 0.00 | 45 | 1008.7 |
| 20260831223045 | 91 | 98 | 5.2 | 10.4 | 0.00 | 0.00 | 0.00 | 45 | 1008.8 |
| 20260831221555 | 90 | 83 | 4.3 | 7.8 | 0.00 | 0.00 | 0.00 | 44 | 1008.8 |
| 20260831220045 | 89 | 120 | 4.3 | 6.1 | 0.00 | 0.00 | 0.00 | 47 | 1008.8 |
| 20260831214544 | 89 | 110 | 5.2 | 8.7 | 0.00 | 0.00 | 0.00 | 46 | 1008.8 |
| 20260831213044 | 90 | 75 | 6.1 | 11.3 | 0.00 | 0.00 | 0.00 | 45 | 1008.8 |
| 20260831211542 | 90 | 78 | 5.2 | 9.6 | 0.00 | 0.00 | 0.00 | 46 | 1009.0 |
| 20260831210040 | 90 | 106 | 7.0 | 12.2 | 0.00 | 0.00 | 0.00 | 47 | 1009.1 |
| 20260831204541 | 90 | 103 | 6.1 | 10.4 | 0.00 | 0.00 | 0.00 | 45 | 1009.3 |
| 20260831203055 | 90 | 101 | 7.8 | 13.0 | 0.00 | 0.00 | 0.00 | 46 | 1009.3 |
| 20260831201539 | 90 | 103 | 8.7 | 14.8 | 0.00 | 0.00 | 0.00 | 46 | 1009.5 |
| 20260831200117 | 90 | 115 | 8.7 | 13.9 | 0.00 | 0.00 | 0.00 | 46 | 1009.7 |
| 20260831194539 | 91 | 82 | 7.8 | 11.3 | 0.00 | 0.00 | 0.00 | 43 | 1009.8 |
| 20260831193037 | 91 | 148 | 5.2 | 10.4 | 0.00 | 0.00 | 0.00 | 40 | 1009.8 |
| 20260831191536 | 92 | 84 | 1.7 | 7.8 | 0.00 | 0.00 | 0.00 | 38 | 1009.9 |
| 20260831190039 | 91 | 169 | 6.1 | 9.6 | 0.00 | 0.00 | 0.00 | 37 | 1010.0 |
| 20260831184534 | 91 | 129 | 3.5 | 8.7 | 0.00 | 0.00 | 0.00 | 37 | 1010.2 |
| 20260831183030 | 90 | 106 | 0.0 | 7.8 | 0.00 | 0.00 | 0.00 | 40 | 1010.3 |
| 20260831181532 | 90 | 208 | 6.1 | 10.4 | 0.00 | 0.00 | 0.00 | 39 | 1010.3 |
| 20260831180027 | 89 | 103 | 2.6 | 7.0 | 0.00 | 0.00 | 0.00 | 39 | 1010.4 |
| 20260831174525 | 89 | 102 | 2.6 | 8.7 | 0.00 | 0.00 | 0.00 | 42 | 1010.6 |
| 20260831173021 | 88 | 270 | 2.6 | 7.0 | 0.00 | 0.00 | 0.00 | 43 | 1010.8 |
| 20260831171520 | 87 | 141 | 1.7 | 8.7 | 0.00 | 0.00 | 0.00 | 45 | 1011.0 |
| 20260831170017 | 87 | 184 | 6.1 | 12.2 | 0.00 | 0.00 | 0.00 | 43 | 1010.9 |
| 20260831164518 | 86 | 211 | 3.5 | 7.0 | 0.00 | 0.00 | 0.00 | 47 | 1011.0 |
| 20260831163017 | 85 | 241 | 2.6 | 6.1 | 0.00 | 0.00 | 0.00 | 49 | 1011.0 |
| 20260831161508 | 84 | 268 | 2.6 | 5.2 | 0.00 | 0.00 | 0.00 | 53 | 1011.0 |
| 20260831160005 | 82 | 285 | 2.6 | 6.1 | 0.00 | 0.00 | 0.00 | 54 | 1010.9 |
| 20260831154503 | 81 | 281 | 0.9 | 6.1 | 0.00 | 0.00 | 0.00 | 56 | 1011.1 |
| 20260831153100 | 80 | 319 | 0.0 | 5.2 | 0.00 | 0.00 | 0.00 | 58 | 1011.0 |
| 20260831151558 | 79 | 44 | 3.5 | 6.1 | 0.00 | 0.00 | 0.00 | 59 | 1010.8 |
| 20260831150056 | 78 | 311 | 2.6 | 7.0 | 0.00 | 0.00 | 0.00 | 62 | 1010.9 |
| 20260831144556 | 76 | 293 | 2.6 | 7.8 | 0.00 | 0.00 | 0.00 | 64 | 1011.0 |
| 20260831143057 | 75 | 319 | 2.6 | 8.7 | 0.00 | 0.00 | 0.00 | 64 | 1011.1 |
| 20260831141605 | 74 | 311 | 4.3 | 7.0 | 0.00 | 0.00 | 0.00 | 68 | 1011.2 |